Location: Unspecified
(0.0000°N, 0.0000°E)
Time: 10:11:46
(UTC+00:00)

Amateur Radio Satellites - All Passes

Search period start: 22 January 2017 09:41
Search period end: 23 January 2017 09:41
Location: Unspecified, 0.0000°N, 0.0000°E

Satellite Date Start Highest point End Downlink Frequencies (MHz)
Time Altitude Azimuth
FUNcube-1 22 Jan 09:46:46 09:47:54 11° 282° (WNW) 09:49:02 145.935
DELFI C3 22 Jan 09:50:17 09:53:48 32° 281° (WNW) 09:57:20 145.870
UNISAT 6 22 Jan 09:52:20 09:56:42 84° 261° (W) 10:00:58 437.425
JAS-2 22 Jan 09:59:09 10:03:13 23° 77° (ENE) 10:07:19 435.910
HUMSAT D 22 Jan 10:02:47 10:06:57 51° 281° (WNW) 10:11:08 437.325/437.525
TIGRISAT 22 Jan 10:05:10 10:09:28 59° 258° (WSW) 10:13:39 435.000
PCSat 22 Jan 10:16:26 10:21:10 31° 71° (ENE) 10:25:55 145.827
ANTELSAT 22 Jan 10:21:16 10:25:09 32° 258° (WSW) 10:28:57 437.575/2403.000
CUBEBUG 1 22 Jan 10:35:32 10:37:42 14° 102° (ESE) 10:39:53 437.445
BY70-1 22 Jan 10:44:33 10:47:17 61° 282° (WNW) 10:49:47 436.1900
AISAT 22 Jan 10:56:23 10:59:02 16° 102° (ESE) 11:01:42 437.250
QB50P1 22 Jan 10:57:32 11:01:25 36° 78° (ENE) 11:05:17 145.935-145.965
POLYITAN 1 22 Jan 11:02:12 11:06:12 43° 78° (ENE) 11:10:10 437.675
QB50P2 22 Jan 11:03:24 11:07:30 50° 78° (ENE) 11:11:34 145.880/145.840
SRMSAT 22 Jan 11:09:11 11:15:09 84° 159° (SSE) 11:21:09 437.500
50 SAT 22 Jan 11:16:20 11:18:34 16° 102° (ESE) 11:20:47 437.505
POPSAT HIP 1 22 Jan 11:24:17 11:28:31 88° 266° (W) 11:32:42 437.405
ESTCUBE 1 22 Jan 11:24:49 11:29:11 53° 282° (WNW) 11:33:34 437.505/2401.250
JUGNU 22 Jan 11:27:40 11:32:06 22° 344° (NNW) 11:36:32 437.505
VELOX 1 22 Jan 11:28:08 11:32:16 42° 102° (ESE) 11:36:25 145.980
DUCHIFAT 1 22 Jan 11:32:44 11:36:55 80° 258° (WSW) 11:41:05 145.980
NANOSAT C BR1 22 Jan 11:39:20 11:43:28 55° 258° (WSW) 11:47:34 145.865
SPROUT 22 Jan 11:42:45 11:46:49 47° 101° (ESE) 11:50:57 437.525
JAS-2 22 Jan 11:44:31 11:48:06 19° 257° (WSW) 11:51:41 435.910
UKube-1 22 Jan 11:50:08 11:53:24 21° 102° (ESE) 11:56:41 .
DX 1 22 Jan 11:54:05 11:58:04 37° 102° (ESE) 12:02:05 434.975-435.025
AO-85 22 Jan 11:56:41 12:01:54 75° 291° (WNW) 12:06:48 145.980
RS-15 22 Jan 11:56:46 12:03:52 18° 248° (WSW) 12:10:51 29.354- 29.394
BUGSAT 1 22 Jan 11:59:40 12:03:47 64° 78° (ENE) 12:07:49 437.445
PCSat 22 Jan 12:00:53 12:04:18 17° 250° (WSW) 12:07:42 145.827
CUBEBUG 1 22 Jan 12:10:16 12:13:42 24° 282° (WNW) 12:17:09 437.445
YUBILEINY 22 Jan 12:29:32 12:35:56 23° 93° (E) 12:42:18 435.215
AISAT 22 Jan 12:31:54 12:35:13 21° 282° (WNW) 12:38:33 437.250
Cosmos 2491 22 Jan 12:50:02 12:58:04 40° 87° (E) 13:06:07 435.465 / 435.565
50 SAT 22 Jan 12:50:13 12:51:30 12° 282° (WNW) 12:52:47 437.505
SRMSAT 22 Jan 12:59:01 13:04:26 36° 341° (NNW) 13:09:51 437.500
Oscar 19 22 Jan 13:02:31 13:07:42 76° 78° (ENE) 13:12:53 437.125/150
TISAT 1 22 Jan 13:03:45 13:07:51 55° 102° (ESE) 13:11:58 437.305
AIST 1 22 Jan 13:18:09 13:22:33 77° 274° (W) 13:26:55
JUGNU 22 Jan 13:20:04 13:21:52 11° 352° (N) 13:23:40 437.505
UKube-1 22 Jan 13:26:41 13:29:10 15° 282° (WNW) 13:31:40 .
Gurwin Techsat 1B 22 Jan 13:32:15 13:37:34 76° 78° (ENE) 13:42:51 435.225
BEESAT 3 22 Jan 13:40:38 13:43:54 27° 112° (ESE) 13:47:11 437.485
ITAMSAT 1 22 Jan 13:52:05 13:54:59 15° 77° (ENE) 13:57:52 435.822/435.867
AO-7 22 Jan 13:56:38 14:01:48 18° 73° (ENE) 14:06:56 29.400- 29.500
DANDE 22 Jan 14:04:57 14:09:59 18° 83° (E) 14:14:41 436.750
ITUPSAT 1 22 Jan 14:07:10 14:11:47 48° 102° (ESE) 14:16:25 437.325
MOZHAYETS 4 22 Jan 14:20:04 14:22:39 15° 102° (ESE) 14:25:15
Cosmos 2504 22 Jan 14:21:38 14:30:35 89° 92° (E) 14:39:16 435.465 / 435.565
YUBILEINY 22 Jan 14:24:06 14:32:19 45° 273° (W) 14:40:35 435.215
BEESAT 2 22 Jan 14:29:20 14:33:03 46° 112° (ESE) 14:36:47 435.950
CUSAT 1 22 Jan 14:35:50 14:42:53 71° 266° (W) 14:48:27 437.405
BEESAT 22 Jan 14:40:19 14:45:01 59° 282° (WNW) 14:49:43 436.000
SWISSCUBE 22 Jan 14:42:17 14:46:52 47° 282° (WNW) 14:51:29 437.505
Cosmos 2491 22 Jan 14:47:36 14:54:30 26° 267° (W) 15:01:28 435.465 / 435.565
SRMSAT 22 Jan 14:50:30 14:54:06 16° 347° (NNW) 14:57:42 437.500
AUBIESAT-1 22 Jan 15:20:32 15:23:01 19° 107° (ESE) 15:25:34 437.475
ITAMSAT 1 22 Jan 15:29:35 15:34:10 32° 257° (WSW) 15:38:44 435.822/435.867
STARS 22 Jan 15:33:45 15:35:00 11° 103° (ESE) 15:36:15 437.465
DANDE 22 Jan 15:44:33 15:52:40 59° 267° (W) 15:59:48 436.750
AO-7 22 Jan 15:46:00 15:54:08 59° 254° (WSW) 16:02:18 29.400- 29.500
O/OREOS (USA 219) 22 Jan 15:53:50 15:56:13 14° 75° (ENE) 15:58:38 437.305
MOZHAYETS 4 22 Jan 15:55:41 15:59:32 26° 282° (WNW) 16:03:23
GOMX 1 22 Jan 16:09:03 16:11:11 12° 78° (ENE) 16:13:18 467.674
BRITE-PL 22 Jan 16:12:30 16:17:42 44° 78° (ENE) 16:23:04 437.365/2234.400
KKS-1 22 Jan 16:19:34 16:23:51 51° 282° (WNW) 16:28:10 437.445
M-CUBED/EXP-1 PRIME 22 Jan 16:19:42 16:22:23 24° 285° (WNW) 16:25:11 437.505
SRMSAT 22 Jan 16:43:55 16:44:19 10° 357° (N) 16:44:42 437.500
CUBESAT XI-V 22 Jan 16:46:22 16:50:56 60° 282° (WNW) 16:55:29 437.345
AIST 2 22 Jan 16:46:25 16:49:30 21° 112° (ESE) 16:52:34 435.215
SO-50 22 Jan 16:48:41 16:51:05 14° 68° (ENE) 16:53:28 436.795
CUTE-I 22 Jan 16:57:00 16:59:45 14° 77° (ENE) 17:02:30 437.470
JUGNU 22 Jan 16:58:40 17:02:06 16° 13° (NNE) 17:05:33 437.505
STARS 22 Jan 17:07:14 17:11:03 30° 282° (WNW) 17:14:54 437.465
LilacSat-2 22 Jan 17:20:24 17:23:36 26° 79° (E) 17:26:47 437.200
O/OREOS (USA 219) 22 Jan 17:31:39 17:35:20 25° 255° (WSW) 17:39:04 437.305
Cubesat XI-IV 22 Jan 17:38:29 17:43:35 47° 78° (ENE) 17:48:40 437.490
NOAA 15 22 Jan 17:39:35 17:44:43 52° 77° (ENE) 17:49:50 137.62
HORYU 2 22 Jan 17:42:01 17:46:01 34° 257° (WSW) 17:50:00 437.375
GOMX 1 22 Jan 17:43:43 17:48:57 46° 258° (WSW) 17:54:08 467.674
BRITE-PL 22 Jan 17:53:17 17:55:54 14° 259° (WSW) 17:58:34 437.365/2234.400
NOAA 18 22 Jan 18:00:25 18:05:34 40° 77° (ENE) 18:10:40 137.9125
DOVE 4 22 Jan 18:11:55 18:17:06 60° 258° (WSW) 18:22:05 437.250
AIST 2 22 Jan 18:25:37 18:27:42 14° 292° (WNW) 18:29:46 435.215
SO-50 22 Jan 18:27:35 18:31:16 25° 248° (WSW) 18:34:58 436.795
Cosmos 2499 22 Jan 18:28:56 18:37:23 49° 94° (E) 18:45:24 435.465 / 435.565
CUTE 1.7 + AOD 2 22 Jan 18:32:14 18:34:53 16° 78° (ENE) 18:37:31 437.475
SRMSAT 22 Jan 18:32:39 18:34:42 12° 8° (N) 18:36:45 437.500
CUTE-I 22 Jan 18:34:40 18:39:31 36° 257° (WSW) 18:44:19 437.470
ISS 22 Jan 18:37:34 18:40:51 81° 127° (SE) 18:44:06 145.825
JUGNU 22 Jan 18:46:15 18:51:37 35° 19° (NNE) 18:57:01 437.505
HO-68 22 Jan 18:51:25 18:58:12 45° 76° (ENE) 19:04:57 435.675
CANX-2 22 Jan 19:00:26 19:04:33 53° 79° (ENE) 19:08:41 2200.000
SEEDS 22 Jan 19:07:09 19:10:52 31° 79° (ENE) 19:14:35 437.485
COMPASS 1 22 Jan 19:08:58 19:11:55 19° 78° (ENE) 19:14:52 437.405
GONETS M04 22 Jan 19:11:13 19:19:54 77° 93° (E) 19:28:34
AAUSAT CUBESAT 2 22 Jan 19:18:02 19:20:52 18° 78° (ENE) 19:23:42 437.432
Cubesat XI-IV 22 Jan 19:22:19 19:23:21 11° 257° (WSW) 19:24:23 437.490
STRAND 1 22 Jan 19:24:36 19:29:33 49° 282° (WNW) 19:34:32 437.568
CINEMA 3 22 Jan 19:25:21 19:29:42 37° 258° (WSW) 19:33:51 145.822/145.860
Oscar 11 22 Jan 19:41:02 19:41:57 11° 78° (ENE) 19:42:52 145.826/435.025
NOAA 18 22 Jan 19:43:08 19:45:54 14° 256° (WSW) 19:48:40 137.9125
CUBEBUG 2 22 Jan 20:04:47 20:09:05 65° 258° (WSW) 20:13:14 437.445
CUTE 1.7 + AOD 2 22 Jan 20:07:26 20:10:27 19° 259° (WSW) 20:13:27 437.475
FUNcube-1 22 Jan 20:17:35 20:21:32 42° 79° (ENE) 20:25:26 145.935
SRMSAT 22 Jan 20:20:09 20:24:42 22° 16° (NNE) 20:29:15 437.500
Cosmos 2499 22 Jan 20:23:55 20:30:02 21° 272° (W) 20:36:00 435.465 / 435.565
PHONESAT 2.4 22 Jan 20:26:17 20:28:12 24° 138° (SE) 20:30:07 2401.200-2431.200
UWE-3 22 Jan 20:28:26 20:32:34 53° 258° (WSW) 20:36:38 435.000/436.395/437.385
JUGNU 22 Jan 20:34:44 20:40:44 87° 202° (SSW) 20:46:47 437.505
HO-68 22 Jan 20:40:42 20:45:34 20° 255° (WSW) 20:50:27 435.675
ZACube-1 22 Jan 20:41:50 20:46:00 69° 259° (W) 20:50:05 437.345
COMPASS 1 22 Jan 20:44:38 20:47:11 16° 258° (WSW) 20:49:45 437.405
AAUSAT CUBESAT 2 22 Jan 20:53:25 20:56:04 17° 258° (WSW) 20:58:43 437.432
ANTELSAT 22 Jan 20:58:37 21:01:37 17° 103° (ESE) 21:04:39 437.575/2403.000
PRISM 22 Jan 20:58:48 21:02:51 79° 103° (ESE) 21:06:54 437.425
Oscar 11 22 Jan 21:14:04 21:17:48 29° 258° (WSW) 21:21:33 145.826/435.025
GONETS M04 22 Jan 21:14:49 21:16:19 10° 273° (W) 21:17:51
RS-15 22 Jan 21:21:39 21:32:39 60° 110° (ESE) 21:44:09 29.354- 29.394
JAS-2 22 Jan 21:30:43 21:36:07 20° 103° (ESE) 21:41:25 435.910
DELFI C3 22 Jan 21:48:35 21:52:13 34° 259° (W) 21:55:51 145.870
UNISAT 6 22 Jan 22:05:06 22:09:35 55° 282° (WNW) 22:14:10 437.425
ESTCUBE 1 22 Jan 22:05:51 22:06:43 10° 78° (ENE) 22:07:35 437.505/2401.250
HUMSAT D 22 Jan 22:07:45 22:11:35 42° 258° (WSW) 22:15:26 437.325/437.525
SRMSAT 22 Jan 22:08:18 22:14:09 54° 21° (NNE) 22:19:59 437.500
BY70-1 22 Jan 22:08:37 22:10:26 17° 77° (ENE) 22:12:22 436.1900
TIGRISAT 22 Jan 22:17:52 22:22:09 40° 281° (WNW) 22:26:33 435.000
JUGNU 22 Jan 22:24:33 22:29:54 33° 199° (SSW) 22:35:14 437.505
ANTELSAT 22 Jan 22:34:23 22:38:01 23° 281° (WNW) 22:41:43 437.575/2403.000
CUBEBUG 1 22 Jan 22:44:35 22:47:47 20° 78° (ENE) 22:50:59 437.445
PCSat 22 Jan 22:51:56 22:57:20 82° 289° (WNW) 23:02:44 145.827
QB50P1 22 Jan 23:03:16 23:07:19 45° 102° (ESE) 23:11:24 145.935-145.965
AISAT 22 Jan 23:07:06 23:10:39 23° 78° (ENE) 23:14:11 437.250
POLYITAN 1 22 Jan 23:08:07 23:12:17 54° 102° (ESE) 23:16:29 437.675
QB50P2 22 Jan 23:09:25 23:13:37 62° 102° (ESE) 23:17:51 145.880/145.840
JAS-2 22 Jan 23:13:11 23:20:43 53° 283° (WNW) 23:28:13 435.910
POPSAT HIP 1 22 Jan 23:30:14 23:34:28 72° 281° (W) 23:38:44 437.405
RS-15 22 Jan 23:36:20 23:44:46 24° 293° (WNW) 23:53:36 29.354- 29.394
DUCHIFAT 1 22 Jan 23:37:57 23:42:08 67° 282° (WNW) 23:46:22 145.980
ESTCUBE 1 22 Jan 23:39:10 23:43:14 34° 258° (WSW) 23:47:19 437.505/2401.250
VELOX 1 22 Jan 23:39:26 23:43:51 64° 78° (ENE) 23:48:15 145.980
NANOSAT C BR1 22 Jan 23:44:58 23:49:00 46° 282° (WNW) 23:53:05 145.865
SPROUT 22 Jan 23:49:53 23:54:07 61° 79° (ENE) 23:58:18 437.525
SRMSAT 22 Jan 23:57:33 00:03:23 55° 201° (SSW) 00:09:12 437.500
UKube-1 22 Jan 23:58:10 00:01:53 28° 78° (ENE) 00:05:35 .
Oscar 19 23 Jan 00:00:47 00:02:19 11° 103° (ESE) 00:03:51 437.125/150
BUGSAT 1 23 Jan 00:02:27 00:06:31 71° 101° (ESE) 00:10:40 437.445
DX 1 23 Jan 00:03:27 00:07:44 52° 78° (ENE) 00:11:59 434.975-435.025
AO-85 23 Jan 00:09:55 00:13:38 36° 247° (WSW) 00:17:35 145.980
JUGNU 23 Jan 00:16:05 00:19:28 15° 192° (SSW) 00:22:51 437.505
CUBEBUG 1 23 Jan 00:20:47 00:23:47 18° 258° (WSW) 00:26:46 437.445
Gurwin Techsat 1B 23 Jan 00:33:41 00:36:19 14° 103° (ESE) 00:38:57 435.225
50 SAT 23 Jan 00:35:12 00:37:51 20° 258° (WSW) 00:40:30 437.505
AISAT 23 Jan 00:44:14 00:46:50 15° 257° (WSW) 00:49:26 437.250
YUBILEINY 23 Jan 01:01:16 01:09:29 45° 87° (E) 01:17:39 435.215
TISAT 1 23 Jan 01:08:56 01:13:06 66° 78° (ENE) 01:17:14 437.305
Cosmos 2491 23 Jan 01:23:12 01:31:56 77° 93° (E) 01:40:36 435.465 / 435.565
AIST 1 23 Jan 01:24:50 01:28:58 52° 266° (W) 01:33:07
BEESAT 23 Jan 01:27:04 01:29:24 14° 77° (ENE) 01:31:44 436.000
SWISSCUBE 23 Jan 01:28:17 01:31:18 17° 78° (ENE) 01:34:19 437.505
BEESAT 3 23 Jan 01:32:26 01:35:52 28° 68° (ENE) 01:39:17 437.485
CUSAT 1 23 Jan 01:33:11 01:35:14 14° 89° (E) 01:37:32 437.405
UKube-1 23 Jan 01:36:07 01:37:37 12° 257° (WSW) 01:39:08 .
Oscar 19 23 Jan 01:36:33 01:41:21 41° 282° (WNW) 01:46:09 437.125/150
SRMSAT 23 Jan 01:48:19 01:52:49 22° 197° (SSW) 01:57:20 437.500
Gurwin Techsat 1B 23 Jan 02:11:06 02:15:57 37° 283° (WNW) 02:20:50 435.225
AO-7 23 Jan 02:21:07 02:28:07 31° 107° (ESE) 02:35:05 29.400- 29.500
BEESAT 2 23 Jan 02:22:24 02:26:17 49° 69° (ENE) 02:30:07 435.950
ITAMSAT 1 23 Jan 02:24:59 02:29:51 40° 103° (ESE) 02:34:44 435.822/435.867
ITUPSAT 1 23 Jan 02:29:19 02:34:05 85° 256° (WSW) 02:38:50 437.325
Cosmos 2504 23 Jan 02:34:17 02:41:22 69° 267° (W) 02:48:41 435.465 / 435.565
MOZHAYETS 4 23 Jan 02:35:39 02:39:19 24° 78° (ENE) 02:42:58
M-CUBED/EXP-1 PRIME 23 Jan 02:46:21 02:47:56 12° 75° (ENE) 02:49:31 437.505
DANDE 23 Jan 02:49:30 02:51:30 17° 91° (E) 02:53:44 436.750
YUBILEINY 23 Jan 02:59:34 03:05:52 22° 267° (W) 03:12:10 435.215
KKS-1 23 Jan 02:59:43 03:00:05 10° 78° (ENE) 03:00:26 437.445
BEESAT 23 Jan 03:02:47 03:06:54 30° 257° (WSW) 03:11:01 436.000
SWISSCUBE 23 Jan 03:05:00 03:08:49 24° 257° (WSW) 03:12:38 437.505
CUSAT 1 23 Jan 03:14:04 03:16:44 17° 282° (WNW) 03:19:51 437.405
AUBIESAT-1 23 Jan 03:18:37 03:22:23 25° 75° (ENE) 03:25:59 437.475
Cosmos 2491 23 Jan 03:26:51 03:28:21 10° 273° (W) 03:29:52 435.465 / 435.565
CUBESAT XI-V 23 Jan 03:30:36 03:32:04 11° 78° (ENE) 03:33:31 437.345
SRMSAT 23 Jan 03:40:54 03:42:48 11° 188° (S) 03:44:43 437.500
STARS 23 Jan 03:43:11 03:45:52 16° 78° (ENE) 03:48:32 437.465
JUGNU 23 Jan 03:57:33 03:59:46 12° 172° (S) 04:01:59 437.505
O/OREOS (USA 219) 23 Jan 04:03:43 04:07:21 24° 105° (ESE) 04:10:57 437.305
ITAMSAT 1 23 Jan 04:07:02 04:09:02 12° 283° (WNW) 04:11:02 435.822/435.867
AO-7 23 Jan 04:13:09 04:20:30 36° 286° (WNW) 04:27:53 29.400- 29.500
MOZHAYETS 4 23 Jan 04:13:34 04:16:13 15° 258° (WSW) 04:18:51
M-CUBED/EXP-1 PRIME 23 Jan 04:17:55 04:22:10 35° 254° (WSW) 04:26:15 437.505
HORYU 2 23 Jan 04:19:25 04:22:01 15° 103° (ESE) 04:24:36 437.375
GOMX 1 23 Jan 04:31:49 04:34:27 16° 102° (ESE) 04:37:06 467.674
KKS-1 23 Jan 04:32:19 04:36:22 34° 258° (WSW) 04:40:24 437.445
BRITE-PL 23 Jan 04:40:24 04:44:42 89° 99° (E) 04:48:52 437.365/2234.400
AIST 2 23 Jan 04:44:13 04:47:47 27° 68° (ENE) 04:51:19 435.215
AUBIESAT-1 23 Jan 04:53:43 04:56:26 16° 253° (WSW) 04:59:06 437.475
DOVE 4 23 Jan 04:58:30 04:59:37 11° 103° (ESE) 05:00:46 437.250
SO-50 23 Jan 04:59:43 05:03:50 28° 112° (ESE) 05:07:55 436.795
CUBESAT XI-V 23 Jan 05:04:56 05:09:08 34° 258° (WSW) 05:13:21 437.345
LilacSat-2 23 Jan 05:14:51 05:17:56 23° 101° (ESE) 05:21:01 437.200
STARS 23 Jan 05:18:34 05:21:57 22° 257° (WSW) 05:25:18 437.465
CUTE-I 23 Jan 05:33:54 05:38:57 42° 103° (ESE) 05:44:00 437.470
O/OREOS (USA 219) 23 Jan 05:44:05 05:46:28 14° 284° (WNW) 05:48:50 437.305
JUGNU 23 Jan 05:44:54 05:49:33 23° 163° (SSE) 05:54:09 437.505
GONETS M04 23 Jan 05:51:52 05:57:04 17° 87° (E) 06:02:15
HORYU 2 23 Jan 05:54:41 05:58:16 24° 282° (WNW) 06:01:52 437.375
CINEMA 3 23 Jan 06:05:34 06:08:25 17° 103° (ESE) 06:11:19 145.822/145.860
GOMX 1 23 Jan 06:09:37 06:12:18 17° 281° (WNW) 06:15:01 467.674
ISS 23 Jan 06:11:34 06:14:41 44° 55° (NE) 06:17:49 145.825
NOAA 15 23 Jan 06:16:54 06:22:03 55° 283° (WNW) 06:27:12 137.62
Cubesat XI-IV 23 Jan 06:17:45 06:22:59 59° 283° (WNW) 06:28:17 437.490
STRAND 1 23 Jan 06:19:13 06:23:18 24° 77° (ENE) 06:27:22 437.568
AIST 2 23 Jan 06:24:30 06:26:00 12° 248° (WSW) 06:27:28 435.215
DOVE 4 23 Jan 06:33:28 06:37:01 27° 281° (W) 06:40:42 437.250
CUTE 1.7 + AOD 2 23 Jan 06:38:01 06:41:10 20° 102° (ESE) 06:44:18 437.475
Cosmos 2499 23 Jan 06:39:08 06:46:03 57° 87° (E) 06:53:22 435.465 / 435.565
SO-50 23 Jan 06:41:18 06:44:03 15° 292° (WNW) 06:46:49 436.795
HO-68 23 Jan 06:43:16 06:49:44 38° 105° (ESE) 06:56:11 435.675
NOAA 18 23 Jan 06:44:26 06:49:49 63° 284° (WNW) 06:55:16 137.9125
LilacSat-2 23 Jan 06:50:55 06:51:57 11° 281° (WNW) 06:52:58 437.200
CANX-2 23 Jan 07:06:44 07:10:58 68° 102° (ESE) 07:15:12 2200.000
SEEDS 23 Jan 07:12:10 07:16:03 37° 101° (ESE) 07:19:57 437.485
COMPASS 1 23 Jan 07:12:48 07:15:59 21° 102° (ESE) 07:19:10 437.405
CUTE-I 23 Jan 07:16:40 07:18:42 12° 283° (WNW) 07:20:44 437.470
SRMSAT 23 Jan 07:19:52 07:23:22 16° 167° (SSE) 07:26:52 437.500
AAUSAT CUBESAT 2 23 Jan 07:21:17 07:24:19 20° 101° (ESE) 07:27:22 437.432
JUGNU 23 Jan 07:32:59 07:38:47 59° 159° (SSE) 07:44:32 437.505
CINEMA 3 23 Jan 07:41:47 07:45:14 22° 281° (W) 07:48:51 145.822/145.860
GONETS M04 23 Jan 07:44:53 07:53:29 58° 267° (W) 08:02:06
Oscar 11 23 Jan 07:48:10 07:50:34 15° 102° (ESE) 07:52:59 145.826/435.025
STRAND 1 23 Jan 07:58:36 08:02:12 19° 257° (WSW) 08:05:47 437.568
CUTE 1.7 + AOD 2 23 Jan 08:14:09 08:16:43 16° 282° (WNW) 08:19:17 437.475
CUBEBUG 2 23 Jan 08:16:35 08:20:56 45° 281° (W) 08:25:26 437.445
FUNcube-1 23 Jan 08:26:16 08:30:44 63° 101° (ESE) 08:35:16 145.935
HO-68 23 Jan 08:31:42 08:37:07 24° 285° (WNW) 08:42:33 435.675
Cosmos 2499 23 Jan 08:36:22 08:38:59 12° 265° (W) 08:41:39 435.465 / 435.565
UWE-3 23 Jan 08:39:03 08:43:19 40° 281° (WNW) 08:47:40 435.000/436.395/437.385
COMPASS 1 23 Jan 08:49:08 08:51:16 14° 282° (WNW) 08:53:24 437.405
ZACube-1 23 Jan 08:51:08 08:55:31 51° 282° (WNW) 08:59:58 437.345
TIGRISAT 23 Jan 08:57:06 08:59:02 13° 78° (ENE) 09:00:55 435.000
AAUSAT CUBESAT 2 23 Jan 08:57:13 08:59:32 15° 282° (WNW) 09:01:50 437.432
PRISM 23 Jan 09:01:19 09:05:29 87° 83° (E) 09:09:39 437.425
RS-15 23 Jan 09:04:33 09:15:56 51° 69° (ENE) 09:26:44 29.354- 29.394
SRMSAT 23 Jan 09:07:39 09:13:01 35° 161° (SSE) 09:18:25 437.500
PHONESAT 2.4 23 Jan 09:08:23 09:10:12 21° 223° (SW) 09:12:01 2401.200-2431.200
ANTELSAT 23 Jan 09:11:34 09:15:01 23° 78° (ENE) 09:18:24 437.575/2403.000
JUGNU 23 Jan 09:22:10 09:27:48 49° 339° (NNW) 09:33:26 437.505
Oscar 11 23 Jan 09:23:01 09:26:26 23° 282° (WNW) 09:29:51 145.826/435.025
